[[{"header":{"parameterUnit":"m.s-1","parameterCategory":1,"la1":30.2991,"la2":30.254,"lo1":-89.0895,"lo2":-89.0444,"dx":0.0017,"dy":0.0017,"nx":28,"ny":28,"refTime":"2022-12-18T15:00:00:Z","depth":0,"parameterNumber":2,"parameterNumberName":"U-component_of_WINDS"},"data":[0,0,0,0,0,0,0,0,0,0,0,0,0,0,0,0,0,0,0,0,0,0,0,0,0,0,0,0,0,0,0,0,0,0,0,0,0,0,0,0,0,0,0,0,0,0,0,0,0,0,0,0,0,0,0,0,0,0,-1.4317,-1.4317,0,-1.4354,-1.4355,-1.4355,-1.4297,-1.4295,-1.4293,-1.4291,-1.4331,-1.4334,-1.4337,0,0,0,0,0,0,0,0,0,0,0,0,0,-1.4196,-1.4199,-1.4317,-1.4317,-1.4318,-1.4354,-1.4355,-1.4355,-1.4297,-1.4295,-1.4292,-1.429,-1.4331,-1.4334,-1.4338,0,0,0,0,0,0,0,0,0,0,0,0,0,-1.4243,-1.42,-1.4317,-1.4293,-1.4291,-1.4354,-1.4355,-1.4355,-1.4298,-1.4295,-1.4292,-1.4289,-1.4329,-1.4334,-1.4338,-1.4426,0,0,-1.4352,-1.4354,0,0,0,0,0,0,0,0,-1.424,-1.4247,-1.4296,-1.4295,-1.4293,-1.4318,-1.4327,-1.4379,-1.4299,-1.4296,-1.4291,-1.4288,-1.433,-1.4334,-1.4347,-1.4428,-1.443,-1.4352,-1.4355,-1.4357,-1.4358,0,0,0,0,0,0,0,-1.4237,-1.4245,-1.4332,-1.4297,-1.4295,-1.4281,-1.4284,-1.4337,-1.4329,-1.4296,-1.4291,-1.4297,-1.4328,-1.4343,-1.4348,-1.443,-1.4352,-1.4356,-1.4359,-1.436,-1.4585,-1.4588,0,0,0,0,0,0,-1.4236,-1.4243,-1.433,-1.4333,-1.4259,-1.4286,-1.4289,-1.4313,-1.4328,-1.4328,-1.4299,-1.4294,-1.4337,-1.4343,-1.4349,-1.4454,-1.4357,-1.4361,-1.4363,-1.4581,-1.4585,-1.4589,0,0,0,0,0,0,-1.4234,-1.4245,-1.4329,-1.4287,-1.4296,-1.4291,-1.4318,-1.4315,-1.4331,-1.4331,-1.433,-1.4316,-1.4335,-1.4343,-1.4407,-1.4455,-1.4363,-1.4367,-1.4577,-1.4583,-1.4587,-1.4664,0,0,0,0,0,0,-1.4231,-1.4244,-1.4278,-1.4288,-1.4299,-1.4386,-1.4321,-1.4318,-1.4338,-1.4331,-1.4347,-1.4346,-1.4333,-1.4401,-1.4412,-1.4459,-1.437,-1.4573,-1.458,-1.4586,-1.4657,-1.4671,-1.4682,0,0,0,0,0,-1.4227,-1.4298,-1.428,-1.429,-1.434,-1.4389,-1.4396,-1.4379,-1.4342,-1.4376,-1.4376,-1.4346,-1.4447,-1.4408,-1.442,-1.4469,-1.457,-1.4578,-1.4585,-1.4651,-1.4668,-1.4682,0,0,0,0,0,0,-1.4295,-1.4299,-1.4279,-1.4355,-1.4372,-1.4379,-1.4421,-1.4397,-1.4425,-1.4418,-1.4396,-1.44,-1.4469,-1.4475,-1.4431,-1.4555,-1.4503,-1.4513,-1.4549,-1.4565,-1.4577,-1.4576,-1.4374,0,0,0,0,0,-1.4318,-1.4357,-1.4359,-1.4426,-1.4436,-1.4427,-1.4448,-1.4433,-1.445,-1.4457,-1.4462,-1.448,-1.4516,-1.454,-1.4573,-1.4657,-1.466,-1.4696,-1.4709,-1.4719,-1.4729,-1.4774,-1.4791,-1.4613,-1.4613,-1.4613,0,0,-1.4368,-1.4375,-1.4401,-1.444,-1.4452,-1.4493,-1.4434,-1.448,-1.4511,-1.4465,-1.4526,-1.453,-1.4548,-1.4623,-1.4656,-1.463,-1.4778,-1.4729,-1.4737,-1.4741,-1.4783,-1.48,-1.4815,-1.4618,-1.4617,-1.4617,0,0,-1.448,-1.4489,-1.4547,-1.4559,-1.4576,-1.457,-1.4584,-1.4594,-1.4595,-1.4656,-1.4622,-1.4658,-1.472,-1.4735,-1.475,-1.4866,-1.484,-1.4878,-1.4945,-1.4989,-1.5003,-1.5015,-1.5058,-1.5074,-1.4887,-1.4887,-1.4887,0,-1.4541,-1.4601,-1.4579,-1.4628,-1.4647,-1.4605,-1.4664,-1.4676,-1.4704,-1.4718,-1.4688,-1.4765,-1.4774,-1.4852,-1.488,-1.4894,-1.4909,-1.4877,-1.5003,-1.5015,-1.5026,-1.5067,-1.5083,-1.4892,-1.4891,-1.4891,-1.489,0,-1.4675,-1.4717,-1.4761,-1.4789,-1.4812,-1.4865,-1.4852,-1.4878,-1.486,-1.4857,-1.4919,-1.4929,-1.4963,-1.498,-1.4964,-1.5055,-1.5039,-1.5006,-1.4954,-1.5048,-1.5086,-1.5101,-1.4898,-1.4896,-1.4895,-1.4894,0,0,-1.4834,-1.4847,-1.4864,-1.4875,-1.4891,-1.4924,-1.4974,-1.5007,-1.503,-1.505,-1.5093,-1.5146,-1.5115,-1.5133,-1.5118,-1.5156,-1.5249,-1.5119,-1.5119,-1.5144,-1.5352,-1.5378,-1.5396,-1.5231,-1.5233,-1.5236,-1.5351,0,-1.4947,-1.5035,-1.5016,-1.5103,-1.5142,-1.5103,-1.5147,-1.5162,-1.5159,-1.5193,-1.519,-1.5228,-1.5184,-1.5195,-1.5231,-1.523,-1.5291,-1.5221,-1.5272,-1.5274,-1.5271,-1.5416,-1.5444,-1.5552,-1.5365,-1.5368,-1.5369,0,-1.5091,-1.5116,-1.5207,-1.5215,-1.5231,-1.5272,-1.53,-1.5332,-1.5347,-1.5343,-1.5362,-1.5339,-1.539,-1.5335,-1.5405,-1.5358,-1.5377,-1.538,-1.5384,-1.539,-1.5329,-1.5428,-1.5586,-1.5603,-1.5392,-1.539,-1.5389,0,-1.52,-1.5256,-1.5317,-1.5328,-1.534,-1.5369,-1.5376,-1.5388,-1.5408,-1.5433,-1.5446,-1.5476,-1.5494,-1.5518,-1.5504,-1.5464,-1.5577,-1.552,-1.5576,-1.5576,-1.5603,-1.5602,-1.5769,-1.5612,-1.5612,-1.5612,-1.5611,0,-1.533,-1.5388,-1.5366,-1.5405,-1.5468,-1.5445,-1.5508,-1.551,-1.5521,-1.5559,-1.5525,-1.5562,-1.554,-1.5575,-1.5563,-1.5624,-1.5632,-1.563,-1.5627,-1.5635,-1.5635,-1.5649,-1.5642,-1.5616,-1.5615,-1.5614,-1.5613,0,-1.5464,-1.5452,-1.5516,-1.5521,-1.5524,-1.557,-1.5574,-1.561,-1.5604,-1.5653,-1.5663,-1.5654,-1.5693,-1.5681,-1.5723,-1.5715,-1.5793,-1.5779,-1.5788,-1.5785,-1.5842,-1.5838,-1.6025,-1.6049,-1.5875,-1.5876,-1.5878,0,-1.5549,-1.5592,-1.5601,-1.5624,-1.5632,-1.5669,-1.569,-1.5668,-1.5691,-1.5711,-1.5745,-1.578,-1.5808,-1.5872,-1.587,-1.5902,-1.589,-1.5953,-1.5895,-1.5901,-1.5893,-1.5892,-1.5896,-1.5966,-1.5968,-1.597,-1.5971,0,-1.5701,-1.5693,-1.5723,-1.5752,-1.5778,-1.5799,-1.5818,-1.5839,-1.5818,-1.5846,-1.5885,-1.5906,-1.5949,-1.5985,-1.6013,-1.602,-1.5993,-1.5989,-1.6004,-1.6013,-1.6018,-1.6018,-1.5822,-1.5986,-1.5984,-1.5983,-1.5982,-1.5982,-1.5814,-1.5851,-1.5863,-1.5898,-1.591,-1.5928,-1.5962,-1.5959,-1.5992,-1.6024,-1.6009,-1.6055,-1.6068,-1.6103,-1.6113,-1.6149,-1.6124,-1.6146,-1.6151,-1.6158,-1.6166,-1.601,-1.6154,-1.6153,-1.6153,-1.6152,-1.6152,0,-1.5967,-1.5972,-1.6004,-1.6031,-1.6059,-1.6029,-1.6048,-1.6074,-1.6114,-1.6128,-1.6156,-1.6201,-1.6235,-1.6235,-1.6267,-1.6295,-1.6284,-1.6305,-1.6304,-1.6306,-1.6185,-1.6169,-1.6314,-1.6314,-1.6314,-1.6314,-1.6314,-1.6314,-1.6049,-1.611,-1.6103,-1.6169,-1.6173,-1.6218,-1.6231,-1.6247,-1.6259,-1.631,-1.6339,-1.6338,-1.6346,-1.6378,-1.6409,-1.6408,-1.6422,-1.6448,-1.6443,-1.633,-1.6314,-1.6299,-1.6285,-1.6451,-1.6451,-1.6561,-1.6562,-1.6563]},{"header":{"parameterUnit":"m.s-1","parameterCategory":1,"la1":30.2991,"la2":30.254,"lo1":-89.0895,"lo2":-89.0444,"dx":0.0017,"dy":0.0017,"nx":28,"ny":28,"refTime":"2022-12-18T15:00:00:Z","depth":0,"parameterNumber":3,"parameterNumberName":"V-component_of_WINDS"},"data":[0,0,0,0,0,0,0,0,0,0,0,0,0,0,0,0,0,0,0,0,0,0,0,0,0,0,0,0,0,0,0,0,0,0,0,0,0,0,0,0,0,0,0,0,0,0,0,0,0,0,0,0,0,0,0,0,0,0,-5.4037,-5.4038,0,-5.4131,-5.4132,-5.4133,-5.407,-5.4067,-5.4064,-5.4061,-5.4154,-5.4159,-5.4164,0,0,0,0,0,0,0,0,0,0,0,0,0,-5.3797,-5.3802,-5.4037,-5.4038,-5.4039,-5.4131,-5.4132,-5.4133,-5.407,-5.4067,-5.4063,-5.406,-5.4152,-5.4158,-5.4164,0,0,0,0,0,0,0,0,0,0,0,0,0,-5.3897,-5.3804,-5.4036,-5.4019,-5.4018,-5.4131,-5.4132,-5.4134,-5.4071,-5.4067,-5.4062,-5.4058,-5.415,-5.4157,-5.4165,-5.4299,0,0,-5.4189,-5.4192,0,0,0,0,0,0,0,0,-5.3892,-5.3906,-5.402,-5.402,-5.4019,-5.4084,-5.4082,-5.4189,-5.4072,-5.4051,-5.4061,-5.4056,-5.4134,-5.4143,-5.417,-5.4304,-5.4307,-5.4189,-5.4194,-5.4197,-5.4199,0,0,0,0,0,0,0,-5.3885,-5.3902,-5.4074,-5.4022,-5.4021,-5.4004,-5.4014,-5.4102,-5.4115,-5.4052,-5.4048,-5.406,-5.4133,-5.4162,-5.4171,-5.4309,-5.4189,-5.4196,-5.4201,-5.4204,-5.4558,-5.4562,0,0,0,0,0,0,-5.388,-5.3897,-5.4071,-5.4077,-5.3944,-5.4012,-5.4023,-5.4068,-5.4114,-5.4117,-5.4064,-5.4057,-5.4151,-5.4162,-5.4174,-5.4335,-5.4197,-5.4204,-5.4209,-5.4553,-5.4559,-5.4564,0,0,0,0,0,0,-5.3875,-5.3896,-5.4067,-5.3986,-5.4006,-5.4021,-5.4072,-5.4072,-5.4101,-5.4123,-5.4124,-5.4092,-5.4148,-5.4163,-5.4269,-5.4337,-5.4208,-5.4215,-5.4547,-5.4555,-5.4561,-5.4658,0,0,0,0,0,0,-5.3869,-5.3895,-5.3947,-5.3987,-5.4011,-5.4162,-5.4076,-5.4077,-5.4115,-5.4107,-5.415,-5.4152,-5.4146,-5.4258,-5.4277,-5.4346,-5.4221,-5.4541,-5.4551,-5.4559,-5.4649,-5.4667,-5.4683,0,0,0,0,0,-5.386,-5.3969,-5.395,-5.3972,-5.4076,-5.4166,-5.4179,-5.4171,-5.4121,-5.4173,-5.4187,-5.4151,-5.4327,-5.4269,-5.429,-5.4362,-5.4537,-5.4548,-5.4559,-5.4641,-5.4664,-5.4683,0,0,0,0,0,0,-5.3935,-5.3974,-5.3953,-5.4079,-5.412,-5.4155,-5.422,-5.4195,-5.425,-5.424,-5.4226,-5.4236,-5.4347,-5.4364,-5.43,-5.4495,-5.4424,-5.4439,-5.4479,-5.4501,-5.4518,-5.4512,-5.4227,0,0,0,0,0,-5.3967,-5.4038,-5.4067,-5.4175,-5.4197,-5.4205,-5.4244,-5.4234,-5.4275,-5.4292,-5.4313,-5.4353,-5.4417,-5.446,-5.452,-5.465,-5.4659,-5.471,-5.4728,-5.4742,-5.4756,-5.4826,-5.485,-5.4599,-5.4599,-5.4599,0,0,-5.4032,-5.4062,-5.4107,-5.4191,-5.4221,-5.4294,-5.422,-5.43,-5.4353,-5.4303,-5.4405,-5.4422,-5.4466,-5.4585,-5.4638,-5.4603,-5.4827,-5.4756,-5.4767,-5.4773,-5.484,-5.4864,-5.4885,-5.4607,-5.4605,-5.4604,0,0,-5.4188,-5.4218,-5.4312,-5.4344,-5.4392,-5.4397,-5.4419,-5.4459,-5.4469,-5.4571,-5.4535,-5.4597,-5.4708,-5.4741,-5.4773,-5.4942,-5.4911,-5.4961,-5.5053,-5.5122,-5.5142,-5.5159,-5.522,-5.5242,-5.4975,-5.4975,-5.4975,0,-5.4263,-5.4373,-5.4362,-5.4446,-5.4484,-5.4443,-5.4537,-5.4568,-5.4633,-5.4659,-5.4619,-5.4758,-5.4785,-5.4911,-5.4953,-5.4979,-5.5004,-5.4957,-5.514,-5.5157,-5.5173,-5.5232,-5.5255,-5.4981,-5.498,-5.498,-5.4979,0,-5.4462,-5.4539,-5.4608,-5.4674,-5.4719,-5.4807,-5.481,-5.4856,-5.4843,-5.4851,-5.4956,-5.4986,-5.5052,-5.5081,-5.5067,-5.5206,-5.5183,-5.5142,-5.5071,-5.5204,-5.5258,-5.528,-5.4989,-5.4987,-5.4986,-5.4984,0,0,-5.4669,-5.4728,-5.4754,-5.4784,-5.4833,-5.4892,-5.4978,-5.5044,-5.5085,-5.513,-5.5202,-5.5296,-5.5259,-5.5295,-5.5284,-5.5345,-5.5478,-5.5296,-5.5297,-5.533,-5.5633,-5.5665,-5.5691,-5.5457,-5.5461,-5.5465,-5.563,0,-5.4829,-5.4982,-5.4975,-5.5117,-5.5187,-5.5149,-5.5224,-5.5262,-5.5273,-5.5333,-5.5343,-5.5412,-5.5357,-5.5378,-5.5436,-5.545,-5.5539,-5.5437,-5.5523,-5.5527,-5.5515,-5.5719,-5.5752,-5.5907,-5.5651,-5.5654,-5.5657,0,-5.5036,-5.5091,-5.5241,-5.5281,-5.531,-5.5378,-5.5438,-5.5496,-5.5538,-5.5541,-5.5582,-5.5562,-5.5647,-5.5573,-5.5691,-5.5623,-5.5657,-5.5669,-5.5675,-5.5683,-5.5601,-5.5734,-5.5955,-5.5979,-5.569,-5.5687,-5.5685,0,-5.5174,-5.5285,-5.5389,-5.5415,-5.5464,-5.5512,-5.5535,-5.5572,-5.5613,-5.5665,-5.5691,-5.5751,-5.5785,-5.5832,-5.5828,-5.5774,-5.5948,-5.5873,-5.5953,-5.5953,-5.5992,-5.599,-5.6224,-5.6013,-5.6012,-5.6012,-5.6011,0,-5.5354,-5.5447,-5.5451,-5.5516,-5.5619,-5.5609,-5.5711,-5.5728,-5.5762,-5.5828,-5.5797,-5.5859,-5.585,-5.5912,-5.591,-5.6008,-5.6023,-5.6028,-5.6026,-5.6032,-5.6031,-5.6055,-5.6044,-5.6018,-5.6017,-5.6016,-5.6014,0,-5.5526,-5.5532,-5.5643,-5.5681,-5.5692,-5.5767,-5.5798,-5.5858,-5.5866,-5.595,-5.5969,-5.5981,-5.6052,-5.6053,-5.6134,-5.6132,-5.6253,-5.6239,-5.624,-5.6238,-5.6318,-5.6311,-5.6576,-5.661,-5.6376,-5.6378,-5.638,0,-5.5641,-5.5712,-5.5758,-5.5801,-5.5827,-5.5896,-5.5937,-5.593,-5.5975,-5.6028,-5.6082,-5.6151,-5.6206,-5.6322,-5.6337,-5.6398,-5.6386,-5.6474,-5.6395,-5.6398,-5.6389,-5.6385,-5.6392,-5.649,-5.6493,-5.6495,-5.6497,0,-5.5845,-5.5845,-5.5907,-5.5971,-5.6022,-5.6071,-5.6116,-5.6153,-5.6151,-5.6202,-5.6276,-5.6318,-5.6402,-5.6471,-5.6531,-5.6552,-5.6525,-5.6522,-5.6544,-5.655,-5.6549,-5.6552,-5.6284,-5.6516,-5.6514,-5.6513,-5.6511,-5.6511,-5.5993,-5.6055,-5.6098,-5.6168,-5.6201,-5.6245,-5.6304,-5.6319,-5.6381,-5.645,-5.6442,-5.6524,-5.6563,-5.6641,-5.6668,-5.6731,-5.67,-5.6732,-5.674,-5.6748,-5.6758,-5.6538,-5.6742,-5.6741,-5.6741,-5.674,-5.674,0,-5.6197,-5.6223,-5.6287,-5.6353,-5.6408,-5.6378,-5.6427,-5.6475,-5.6548,-5.6588,-5.6643,-5.6728,-5.6795,-5.6815,-5.6879,-5.6926,-5.6915,-5.6943,-5.694,-5.6946,-5.6781,-5.6756,-5.6951,-5.6951,-5.6951,-5.6951,-5.6951,-5.6951,-5.631,-5.6414,-5.6418,-5.6538,-5.6562,-5.6644,-5.6675,-5.6714,-5.6746,-5.6843,-5.6899,-5.6912,-5.6944,-5.701,-5.707,-5.7074,-5.7099,-5.7133,-5.7132,-5.6978,-5.6957,-5.6937,-5.6914,-5.7139,-5.7139,-5.7292,-5.7294,-5.7295]}]]